Wind_Speed
27 27 27 28 28 29 30 31 31 32 32 32 32 32 31 31 31 31 30 30 29 29 28 28 27 26 26 25 25 24 23 23 23 23 23 22 21 19 17 15 14 14
28 28 28 28 29 29 29 30 31 32 32 32 33 33 33 32 32 31 31 30 29 29 29 28 28 27 27 26 25 25 24 24 23 24 25 25 25 24 22 20 18 15
28 28 28 28 29 29 29 29 30 30 31 32 32 33 33 33 32 32 32 31 31 30 30 29 29 28 28 28 27 25 25 25 24 24 25 26 27 26 25 24 22 19
29 29 29 29 29 30 30 30 29 29 30 30 31 32 32 33 33 33 32 32 32 32 32 31 30 30 29 29 28 26 26 25 25 25 26 27 28 29 28 27 26 23
31 31 30 30 30 31 31 31 31 31 30 30 30 31 32 33 33 34 34 33 33 32 32 32 31 31 30 30 29 28 27 26 26 26 26 27 29 30 30 30 28 26
33 33 32 32 32 32 32 32 32 33 32 32 31 31 31 32 32 33 34 34 34 33 32 31 31 31 30 30 29 28 28 28 27 27 27 28 30 31 31 31 30 29
35 35 35 35 34 34 34 34 34 34 34 33 33 33 32 32 32 33 33 34 35 34 32 31 31 31 30 30 29 28 28 28 28 28 29 30 31 31 32 32 32 30
36 36 36 36 35 34 34 34 34 34 34 34 34 35 34 34 33 33 33 34 35 35 34 32 30 30 30 30 29 29 28 29 29 30 31 32 32 33 33 33 32 31
34 34 34 34 34 34 33 33 33 33 34 34 34 34 34 33 33 33 32 32 33 33 33 33 31 30 30 31 30 30 30 30 31 32 32 33 34 34 33 33 32 30
32 32 32 32 33 33 33 33 33 33 33 33 33 33 33 32 32 32 32 32 32 32 32 32 32 32 31 31 31 31 31 32 33 33 33 34 36 35 34 33 32 30
31 31 32 32 32 33 33 33 33 33 33 33 32 32 32 32 32 32 32 32 32 32 32 32 32 32 32 31 32 33 34 34 34 34 35 36 36 35 33 32 31 29
31 31 32 32 32 32 32 33 33 33 33 33 33 33 33 33 33 33 33 33 33 33 33 33 32 32 31 31 31 33 34 34 34 35 35 36 35 33 32 32 31 29
31 31 32 32 32 33 33 34 34 34 34 34 34 33 33 33 33 33 34 34 34 34 34 33 32 31 30 30 31 31 32 32 33 33 33 33 32 32 32 31 31 31
32 32 32 32 33 33 34 35 35 35 35 35 35 34 34 34 34 34 34 34 34 34 34 34 33 32 31 30 30 30 30 30 30 30 31 31 30 30 30 31 31 31
33 33 33 33 34 34 35 35 36 37 37 37 37 36 36 35 35 35 35 35 35 35 35 34 34 33 32 31 31 30 30 30 29 29 29 29 29 29 29 30 30 31
34 34 34 35 35 36 36 37 38 38 39 39 39 39 38 38 38 37 37 37 37 37 37 36 36 34 33 33 33 32 32 32 31 31 30 30 30 30 30 30 31 32
34 34 35 36 37 37 38 38 39 40 41 41 41 41 41 41 41 40 40 39 39 39 39 39 39 38 37 35 35 34 34 33 33 32 32 32 33 33 33 33 33 34
33 33 34 35 36 37 37 38 38 39 40 42 43 43 44 44 43 43 43 43 42 42 41 41 41 41 41 40 39 38 37 36 35 35 35 35 36 36 36 36 35 35
34 34 34 35 36 37 37 38 39 39 40 41 43 44 45 46 46 46 46 45 45 45 44 43 43 43 43 43 42 41 40 40 39 39 39 39 39 40 40 40 38 38
36 37 37 38 39 39 40 40 41 42 43 44 45 46 47 47 48 48 49 48 48 47 47 46 45 44 44 44 44 43 43 42 42 42 42 42 42 42 43 43 42 41
39 39 40 40 41 42 43 44 45 46 46 47 49 49 50 50 50 51 51 50 50 50 49 48 47 46 45 45 45 45 45 45 45 45 44 43 43 43 44 46 46 45
40 40 41 42 42 43 45 46 48 49 50 50 51 52 53 53 54 54 53 52 51 51 51 51 49 47 46 46 45 45 45 46 46 46 46 45 44 44 45 47 48 48
41 42 42 43 44 44 46 47 48 49 51 52 53 54 55 55 56 57 57 56 54 52 52 52 52 50 48 47 47 46 46 46 47 47 47 46 45 44 46 47 49 50
41 42 43 44 45 46 46 47 49 50 51 52 53 54 56 56 57 58 58 59 58 55 54 53 54 53 52 50 49 48 47 47 48 48 48 47 46 45 46 47 49 50
43 43 43 44 45 46 47 48 50 52 53 53 54 55 56 57 58 58 58 59 60 58 56 55 55 55 55 54 52 50 48 48 48 49 49 48 47 48 48 48 49 50
47 47 46 47 47 48 48 49 51 53 54 56 56 57 58 59 60 60 60 59 60 59 57 56 55 56 56 55 54 53 51 49 50 50 50 49 50 51 51 51 51 51
Wind_Direction
4 4 4 3 3 4 4 3 2 1 1 0 360 360 0 1 2 3 3 2 2 2 1 1 1 0 0 360 359 359 359 360 1 1 1 1 1 359 353 338 318 302
359 359 358 358 358 358 359 358 357 356 355 355 354 354 354 354 355 356 357 357 356 355 355 354 354 353 352 352 352 351 351 351 352 352 352 352 352 353 353 349 338 320
355 354 354 353 353 353 353 353 352 351 350 350 350 349 349 349 349 350 350 350 350 349 348 347 347 346 346 345 344 344 343 344 344 345 345 346 346 346 347 347 343 333
350 350 349 349 349 348 347 347 347 347 346 346 346 346 345 344 343 343 343 343 343 343 342 341 341 340 340 339 338 337 337 338 338 339 339 339 340 341 342 342 341 337
344 344 344 343 343 342 341 341 341 341 341 341 341 341 340 339 338 336 336 337 337 337 337 336 335 335 335 334 334 332 332 332 333 334 334 334 335 336 337 337 337 334
338 337 337 336 336 336 336 336 335 335 335 335 336 336 335 334 332 331 330 331 331 331 332 331 330 330 330 330 329 327 327 327 328 329 329 330 330 331 332 332 332 330
331 331 330 330 331 331 331 330 330 330 330 330 330 329 328 327 326 325 325 325 325 325 326 326 326 325 325 325 324 323 322 323 324 325 325 326 326 327 327 327 328 326
328 327 327 327 327 326 326 326 325 325 325 325 325 324 323 323 322 321 321 321 321 321 322 323 322 321 321 320 320 320 320 321 321 321 321 321 322 322 322 323 323 320
331 330 329 329 328 328 328 327 327 327 326 326 326 326 325 325 324 323 322 321 320 320 320 320 321 320 319 318 319 320 320 318 316 315 316 316 317 317 317 318 318 315
335 334 334 334 334 334 334 333 333 333 332 332 331 331 330 329 329 328 327 325 324 322 321 321 320 320 319 319 318 316 314 312 310 310 310 310 311 311 312 313 313 312
338 338 338 338 338 337 337 336 336 336 335 335 335 334 333 332 331 331 330 329 328 326 325 323 321 320 318 316 312 309 307 307 306 305 305 305 306 308 309 310 311 313
340 339 339 338 338 337 336 336 336 337 337 336 336 336 335 335 334 334 334 333 331 330 329 327 325 322 318 314 310 306 305 305 304 303 302 302 304 306 308 310 312 314
341 340 338 337 336 335 335 335 335 335 335 335 336 336 336 336 336 336 336 337 336 334 332 330 327 325 322 319 316 312 310 308 306 304 303 304 305 308 310 313 313 312
342 340 338 337 336 335 335 334 334 334 334 334 334 335 335 335 335 336 337 338 338 337 336 333 331 328 326 325 323 321 318 316 313 311 311 311 312 314 315 315 313 311
340 339 338 338 337 336 336 335 335 334 334 334 334 334 334 334 334 335 336 337 336 336 336 335 334 332 331 330 329 328 327 325 324 323 322 322 321 321 320 319 319 318
340 339 339 338 338 338 338 337 337 336 336 335 334 334 334 334 334 334 334 335 335 334 334 333 333 333 333 333 333 333 333 332 331 330 329 327 326 325 325 325 325 326
341 341 341 341 341 341 341 341 340 339 337 336 335 335 334 333 333 332 332 332 332 332 332 331 331 332 332 333 333 333 334 334 332 330 329 328 327 327 327 327 329 330
342 343 343 343 343 344 344 344 343 341 339 337 335 334 333 332 331 330 330 330 329 329 329 329 329 329 329 330 329 330 330 330 330 329 328 328 326 326 326 326 328 330
338 340 341 342 342 344 344 345 344 343 342 340 338 336 334 332 331 329 328 327 326 326 326 326 326 326 326 326 326 325 326 326 327 326 326 326 325 324 324 323 324 325
333 334 336 337 338 339 340 341 341 342 342 342 341 340 338 335 332 329 327 326 324 324 323 323 323 323 322 322 322 322 322 322 323 323 322 322 322 322 321 320 321 321
329 330 331 333 334 334 335 336 337 338 339 339 339 339 338 337 335 332 329 326 324 322 322 321 321 321 320 319 319 319 319 318 319 319 318 318 318 318 318 317 317 318
325 326 328 329 330 331 331 332 332 334 335 336 336 335 335 335 334 333 331 329 325 323 321 320 319 319 318 316 316 316 315 315 314 314 314 314 315 315 315 314 314 314
322 323 325 326 328 329 329 329 329 330 331 333 332 331 331 331 331 331 331 330 327 324 322 320 318 317 316 314 313 313 313 312 311 311 310 310 311 311 310 309 310 311
318 320 322 323 324 326 327 327 327 327 329 330 330 329 327 327 327 328 328 328 327 325 323 320 318 316 315 314 312 312 311 309 309 308 307 307 308 307 305 305 305 306
315 317 318 320 321 323 324 325 325 326 328 329 329 328 326 325 324 325 325 326 325 324 322 320 318 316 314 314 312 311 310 308 307 305 305 306 305 303 301 301 301 303
314 315 316 317 319 320 322 322 323 324 326 328 328 327 325 324 323 323 323 323 323 322 319 318 317 315 313 312 311 310 308 307 304 303 303 304 302 300 300 299 299 300
Height
10657 10656 10654 10652 10651 10649 10648 10646 10644 10642 10641 10639 10638 10636 10635 10634 10633 10631 10630 10628 10627 10625 10624 10623 10622 10621 10619 10618 10617 10615 10614 10612 10611 10610 10608 10607 10606 10605 10603 10602 10600 10598
10656 10655 10653 10652 10650 10649 10647 10645 10643 10641 10640 10638 10636 10635 10633 10632 10630 10629 10628 10627 10626 10624 10623 10622 10620 10619 10618 10616 10615 10614 10612 10611 10609 10608 10606 10605 10604 10602 10601 10599 10598 10596
10655 10654 10652 10650 10649 10647 10646 10645 10643 10641 10639 10637 10635 10633 10631 10629 10628 10627 10626 10625 10623 10622 10621 10620 10619 10617 10616 10614 10613 10612 10610 10608 10607 10605 10604 10602 10601 10600 10598 10596 10595 10593
10653 10652 10650 10649 10647 10645 10644 10643 10642 10640 10638 10636 10634 10632 10630 10628 10626 10624 10623 10622 10621 10619 10618 10617 10615 10614 10613 10611 10610 10609 10607 10606 10604 10603 10601 10600 10598 10596 10595 10593 10592 10590
10651 10650 10648 10647 10645 10643 10641 10640 10638 10637 10636 10634 10633 10631 10629 10626 10624 10622 10621 10620 10618 10617 10615 10614 10612 10611 10610 10608 10607 10605 10604 10602 10601 10600 10598 10597 10595 10593 10591 10590 10588 10587
10648 10647 10646 10644 10642 10641 10639 10637 10635 10634 10632 10631 10630 10628 10627 10625 10623 10620 10618 10616 10615 10614 10613 10611 10609 10608 10606 10605 10603 10602 10600 10599 10597 10596 10595 10593 10592 10590 10588 10586 10585 10583
10646 10644 10643 10641 10640 10638 10636 10634 10632 10631 10629 10627 10626 10625 10624 10622 10620 10618 10616 10614 10612 10610 10609 10608 10606 10604 10603 10602 10600 10599 10597 10595 10594 10592 10591 10590 10588 10587 10585 10583 10581 10580
10644 10642 10640 10638 10637 10635 10634 10632 10630 10628 10626 10625 10623 10622 10620 10619 10617 10615 10613 10611 10608 10606 10605 10604 10603 10601 10599 10598 10596 10595 10593 10592 10590 10589 10587 10586 10585 10583 10582 10580 10578 10576
10641 10639 10637 10635 10634 10632 10631 10629 10628 10626 10624 10622 10621 10619 10617 10615 10613 10611 10610 10608 10605 10603 10601 10600 10598 10597 10595 10593 10591 10590 10589 10587 10586 10585 10584 10583 10581 10580 10578 10576 10575 10573
10640 10637 10635 10633 10631 10629 10627 10626 10624 10623 10622 10620 10618 10616 10614 10612 10610 10608 10607 10605 10603 10601 10598 10596 10594 10593 10591 10589 10587 10586 10584 10583 10582 10581 10580 10579 10577 10576 10574 10572 10571 10569
10639 10636 10634 10631 10629 10627 10625 10623 10622 10620 10619 10617 10616 10614 10612 10610 10608 10606 10604 10602 10600 10598 10596 10594 10591 10589 10587 10585 10584 10582 10581 10579 10578 10577 10576 10574 10573 10571 10570 10568 10566 10564
10637 10635 10632 10630 10628 10626 10624 10622 10620 10618 10616 10615 10613 10611 10610 10608 10605 10603 10601 10600 10597 10595 10593 10591 10589 10586 10584 10582 10580 10579 10577 10575 10574 10573 10571 10570 10568 10567 10565 10563 10561 10559
10636 10634 10631 10629 10627 10624 10622 10620 10618 10616 10614 10613 10611 10609 10607 10605 10603 10601 10599 10597 10595 10593 10591 10589 10586 10584 10582 10579 10577 10575 10573 10572 10570 10568 10567 10565 10564 10562 10560 10558 10557 10555
10634 10632 10630 10628 10626 10623 10621 10618 10616 10614 10612 10611 10609 10607 10605 10603 10601 10599 10597 10595 10593 10590 10588 10586 10584 10582 10579 10577 10575 10573 10571 10569 10567 10565 10563 10561 10559 10557 10556 10554 10553 10551
10632 10630 10628 10626 10624 10622 10620 10617 10615 10613 10611 10609 10607 10605 10603 10601 10599 10596 10594 10592 10590 10588 10586 10584 10581 10579 10577 10574 10572 10570 10568 10566 10564 10561 10559 10557 10555 10554 10552 10550 10549 10547
10630 10627 10625 10623 10621 10619 10617 10615 10613 10611 10609 10606 10604 10602 10600 10598 10596 10594 10592 10589 10587 10585 10583 10580 10578 10576 10574 10572 10569 10567 10565 10562 10560 10558 10556 10554 10552 10550 10548 10547 10545 10542
10628 10625 10623 10621 10619 10617 10615 10613 10611 10608 10606 10603 10601 10599 10597 10595 10592 10590 10588 10586 10584 10582 10579 10577 10574 10572 10570 10568 10566 10564 10562 10560 10558 10556 10553 10551 10548 10546 10544 10542 10540 10538
10627 10624 10622 10619 10617 10615 10613 10611 10608 10606 10604 10601 10598 10596 10593 10591 10589 10586 10584 10582 10580 10578 10576 10573 10571 10568 10566 10564 10562 10560 10558 10557 10555 10552 10550 10547 10545 10542 10540 10538 10536 10534
10625 10623 10621 10618 10616 10613 10611 10608 10606 10603 10601 10598 10595 10592 10590 10587 10585 10582 10580 10578 10575 10573 10571 10569 10567 10564 10562 10559 10558 10555 10554 10552 10550 10548 10546 10544 10541 10538 10535 10533 10532 10530
10622 10620 10618 10615 10613 10610 10608 10605 10602 10600 10597 10594 10591 10588 10586 10583 10580 10578 10575 10573 10571 10568 10566 10565 10563 10560 10557 10555 10553 10551 10549 10547 10545 10543 10541 10539 10537 10534 10531 10528 10526 10524
10619 10616 10614 10611 10609 10606 10603 10601 10598 10595 10592 10589 10586 10583 10581 10578 10576 10573 10570 10568 10565 10563 10560 10559 10557 10555 10553 10550 10548 10546 10543 10541 10539 10537 10535 10533 10532 10529 10526 10523 10520 10519
10616 10613 10611 10608 10605 10602 10599 10596 10593 10590 10588 10585 10582 10579 10576 10573 10570 10568 10565 10563 10560 10557 10554 10552 10550 10549 10547 10545 10543 10541 10538 10536 10534 10531 10529 10527 10526 10523 10520 10517 10514 10513
10614 10611 10608 10604 10602 10599 10596 10593 10590 10587 10584 10581 10578 10575 10571 10568 10565 10562 10559 10556 10554 10551 10549 10545 10542 10541 10540 10538 10536 10535 10533 10530 10527 10526 10523 10521 10520 10518 10515 10511 10508 10506
10611 10609 10605 10602 10599 10596 10593 10590 10587 10584 10581 10578 10575 10571 10568 10564 10561 10558 10554 10550 10547 10545 10542 10539 10534 10532 10531 10530 10529 10527 10525 10522 10520 10518 10516 10514 10513 10511 10508 10505 10503 10500
10608 10605 10602 10599 10596 10593 10590 10587 10583 10580 10577 10574 10571 10568 10564 10560 10557 10554 10551 10547 10542 10539 10535 10532 10528 10524 10521 10521 10520 10519 10517 10515 10512 10510 10507 10506 10505 10502 10500 10498 10496 10494
10602 10600 10597 10594 10591 10589 10586 10583 10579 10575 10572 10569 10566 10563 10560 10556 10551 10548 10546 10543 10539 10535 10531 10527 10523 10519 10515 10512 10511 10509 10508 10507 10504 10501 10499 10498 10496 10493 10491 10489 10488 10487